Reflectivity
-20 -20 -1 -20 -20 -20 -20 -20 -20 -20 -20 -20 -20 -20 -20 -20 -20 -20 -20 -20 -20 -20 -20 -20 -20 -20 -20 -20 -20 -20 -20 -20 -20 -20 -20 -20 -20 -20 -20 -20 -20 -20 -20
-20 -20 -16 -20 -20 -20 -20 -20 -20 -20 -20 -20 -20 -20 -20 -20 -20 -20 -20 -20 -20 -20 -20 -20 -20 -20 -20 -20 -20 -20 -20 -20 -20 -20 -20 -20 -20 -20 -20 -20 -20 -20 -20
-20 -20 -20 -20 -20 -20 -20 -20 -20 -20 -20 -20 -20 -20 -20 -20 -20 -20 -20 -20 -20 -20 -20 -20 -20 -20 -20 -20 -20 -20 -20 -20 -19 -11 -20 -20 -14 -20 -20 -20 -20 -14 -17
-20 -20 -20 -20 -20 -20 -20 -20 -20 -20 -20 -20 -20 -20 -20 -20 -20 -20 -20 -20 -20 -20 -20 -20 -20 -20 -20 -20 -20 -20 -20 -20 -20 -20 -20 -20 -8 -20 -20 -20 -3 -7 -20
-20 -20 -20 -20 -20 -20 -20 -20 -20 -20 -20 -20 -20 -20 -20 -20 -20 -20 -20 -20 -20 -20 -20 -20 -20 -20 -20 -20 -20 -20 -20 -20 -20 -20 -11 4 3 -13 -12 -12 -20 -20 16
-20 -20 -20 -20 -20 -20 -20 -20 -20 -20 -20 -20 -20 -20 -20 -20 -20 -20 -20 -20 -20 -20 -20 -20 -20 -20 -20 -20 -20 -20 -20 -20 -17 1 -16 -7 -14 3 16 16 12 7 -12
-20 -20 -20 -20 -20 -20 -20 -20 -20 -20 -20 -20 -20 -20 -20 -20 -20 -20 -20 -20 -20 -20 -20 -20 -20 -20 -20 -20 -20 -20 -20 -3 3 1 4 7 -20 -13 -20 -2 24 24 20
-20 -20 -20 -20 -20 -20 -20 -20 -20 -20 -20 -20 -20 -20 -20 -20 -20 -20 -20 -20 -20 -20 -20 -20 -20 -20 -20 -20 -20 -20 -20 -13 7 0 -20 -19 -0 -12 -3 -20 7 2 17
-20 -20 -20 -20 -20 -20 -20 -20 -20 -20 -20 -20 -20 -20 -20 -20 -20 -20 -20 -20 -20 -20 -20 -20 -20 -20 -20 -20 -20 -20 -20 -20 -13 12 9 -7 -9 -10 -19 -20 -10 6 -19
-20 -20 -20 -20 -20 -20 -20 -20 -20 -20 -20 -20 -20 -20 -20 -20 -20 -20 -20 -20 -20 -20 -20 -20 -20 -20 -20 -20 -20 -20 -20 -20 -20 12 15 20 15 24 23 27 11 21 20
-20 -20 -20 -20 -20 -20 -20 -20 -20 -20 -20 -20 -20 -20 -20 -20 -20 -20 -20 -20 -20 -20 -20 -20 -20 -20 -20 -20 -20 -20 -20 -20 -20 3 3 1 23 -10 -16 -4 27 38 32
-20 -20 -20 -20 -20 -20 -20 -20 -20 -20 -20 -20 -20 -20 -20 -20 -20 -20 -20 -20 -20 -20 -20 -20 -20 -20 -20 -20 -20 -20 -20 -20 -20 -12 -16 7 10 7 7 1 25 39 35
-20 -20 -20 -20 -20 -20 -20 -20 -20 -20 -20 -20 -20 -20 -20 -20 -20 -20 -20 -20 -20 -20 -20 -20 -20 -20 -20 -20 -20 -20 -20 -20 -20 -3 9 7 3 2 21 10 14 21 18
-20 -20 -20 -20 -20 -20 -20 -20 -20 -20 -20 -20 -20 -20 -20 -20 -20 -20 -20 -20 -20 -20 -20 -20 -20 -20 -20 -20 -20 -20 -20 -19 -20 1 16 -20 -20 -20 -20 -20 -20 5 -19
-20 -20 -20 -20 -20 -20 -20 -20 -20 -20 -20 -20 -20 -20 -20 -20 -2 0 -20 -20 -20 -20 -20 -20 -20 -20 -20 -20 -20 -20 -20 -3 -20 18 14 19 -20 -20 -20 -20 10 12 9
-20 -20 -18 -10 10 -11 -20 -20 -20 -20 -20 -20 -20 -20 -20 5 -17 -20 -20 -20 -20 -20 -20 -20 -20 -20 -20 -20 -20 -20 -20 -20 8 -5 17 -0 -15 -6 -20 -18 0 -5 5
-20 -20 -8 -15 -18 8 2 -13 -20 -15 -20 -20 -20 -19 3 6 -20 -20 -20 -20 -20 -20 -20 -20 -20 -20 -20 -20 -20 -20 -20 -20 -16 19 -1 17 14 -10 -15 7 -11 -20 -20
-20 -19 7 -19 -20 -20 -20 -19 -4 -20 -20 -20 -20 -20 -15 -20 -20 -20 -20 -20 -20 -20 -20 -20 -20 -20 -20 -20 -20 -20 -20 -6 -9 6 17 25 33 26 -3 16 16 -19 -8
-20 -20 -16 -11 -20 -20 -20 -20 -16 22 23 -19 -16 -14 -13 -20 -20 -20 -20 -20 -20 -20 -20 1 -20 -20 -1 -18 -18 -10 -20 -20 -1 33 10 26 25 18 13 9 -13 -3 -20
-20 -20 -14 5 -18 -20 -5 14 6 20 21 22 10 16 13 18 -12 -20 -20 -20 -20 -20 16 8 9 14 -18 -18 -20 -20 -1 -4 16 4 28 33 34 28 14 -19 -20 -20 -20
-20 -20 -20 -20 -20 2 -4 -9 20 19 21 25 32 31 29 29 -4 -20 -20 -20 -20 -20 -18 -17 6 1 -16 -20 -11 5 5 27 15 20 24 31 10 25 5 -20 -20 -20 -8
-20 -20 -20 -20 -20 -20 -20 9 21 27 31 28 25 25 32 32 2 -19 -20 -20 -20 -20 -20 -20 -13 9 -11 7 -2 24 27 19 28 26 27 33 32 30 19 -16 -20 -20 -20
-20 -20 -20 5 -14 -20 -9 15 13 -1 -10 17 26 29 30 3 -20 -20 -16 -20 -19 1 -16 1 8 2 15 1 12 23 29 23 25 18 29 25 27 22 21 -2 -20 -10 1
-7 -20 -20 -13 18 20 29 2 24 30 29 26 28 29 22 -20 -1 -20 -20 -20 -20 -20 -13 -20 -4 -19 -20 -14 3 24 25 27 29 33 34 12 34 28 21 -6 -3 -20 -20
-20 -18 -20 -5 -15 32 10 25 28 31 35 35 28 33 -13 -1 6 -3 2 -11 -20 -20 3 6 5 5 2 10 12 21 29 22 18 20 27 26 22 24 25 -9 -8 -8 -20
-15 -5 -18 13 12 17 37 30 26 6 37 36 33 11 10 -5 5 -13 -20 -20 -20 -13 -19 -16 -16 -16 -19 12 25 27 28 26 14 20 17 17 14 5 -9 -20 -20 -20 -20
Wind_Speed
3 2 2 0 1 3 3 3 2 2 3 3 3 4 4 4 3 1 0 1 3 5 6 8 9 9 10 10 10 10 11 11 11 11 10 10 10 11 13 13 12 11 9
3 3 2 3 2 2 2 1 1 2 2 2 2 1 1 1 1 1 1 1 1 3 4 5 6 8 9 9 9 9 9 11 11 12 11 11 12 12 13 13 11 8 8
4 5 4 3 2 1 2 3 3 3 3 4 4 4 4 3 3 3 2 1 1 3 3 5 6 7 8 9 11 11 11 12 11 12 12 13 13 12 12 12 12 10 9
5 4 4 3 3 2 2 2 2 2 3 3 2 3 3 3 3 2 2 2 1 1 3 5 5 6 6 9 10 12 13 14 14 13 14 14 13 11 12 13 13 12 12
5 4 3 3 3 2 2 1 2 1 1 2 3 2 3 2 3 2 2 2 2 1 1 5 7 8 8 11 9 11 14 14 14 13 14 13 12 13 11 10 10 11 7
5 4 3 4 3 3 2 1 1 0 1 1 3 4 4 3 2 2 1 1 1 2 2 3 3 4 6 7 9 11 15 16 15 15 12 12 12 13 14 13 12 6 8
5 5 4 4 4 4 4 4 2 2 1 1 2 3 3 3 2 1 0 1 1 2 2 2 2 2 3 6 7 9 13 17 16 15 14 11 11 12 13 13 12 12 11
6 5 5 5 5 3 3 3 2 1 1 1 2 1 3 4 3 2 0 1 2 1 2 3 3 3 3 2 6 10 11 15 15 14 13 13 13 13 14 14 13 14 14
6 6 6 5 5 4 4 4 5 5 3 1 2 3 1 3 2 2 1 1 2 2 3 3 3 3 1 2 3 6 12 15 16 14 13 11 12 14 16 16 15 14 12
6 6 6 6 6 4 5 5 4 4 3 3 1 2 1 3 2 4 2 2 2 3 4 3 3 3 1 0 1 6 10 14 16 13 11 11 11 11 14 17 15 8 13
6 7 7 6 6 5 5 6 5 5 4 3 3 2 1 2 2 3 4 4 2 3 3 3 3 3 2 2 3 1 7 12 15 13 10 12 10 13 12 30 17 19 25
4 6 7 6 6 5 6 6 6 6 5 4 4 4 5 4 3 3 3 4 3 4 2 3 3 3 3 2 2 2 7 11 13 12 9 9 10 12 18 22 21 16 14
4 7 6 6 5 6 6 5 6 6 6 4 5 4 3 3 3 3 2 3 4 3 3 2 3 2 2 2 1 4 6 10 13 12 5 7 9 10 13 15 15 13 14
7 7 8 6 7 7 6 6 4 5 6 5 6 5 4 4 3 3 3 4 2 2 2 5 1 3 1 1 1 4 4 9 13 11 2 8 11 11 13 14 15 15 17
6 7 8 9 8 7 7 6 5 6 5 5 6 5 4 3 4 3 3 3 4 2 2 3 2 1 0 1 2 2 2 6 12 3 5 10 10 11 13 13 14 16 15
9 8 9 10 9 9 8 8 5 5 6 5 5 6 4 3 3 4 4 3 3 4 3 2 4 2 3 2 1 2 3 5 9 2 9 10 10 14 17 15 15 13 12
10 11 11 11 11 11 10 9 9 9 10 7 6 7 7 5 4 4 4 3 4 4 4 3 3 3 3 3 2 1 2 3 4 4 6 10 15 17 17 17 15 13 13
10 11 11 10 11 11 11 12 12 10 12 11 11 8 7 4 5 5 4 6 4 5 4 5 4 4 4 4 3 3 2 1 3 6 3 8 17 19 18 17 17 15 13
9 9 9 10 11 12 12 13 12 9 9 7 6 7 6 6 5 4 4 4 3 2 3 3 3 3 3 2 1 2 1 1 1 7 4 11 21 20 19 18 17 16 15
9 7 9 11 12 11 10 10 9 8 6 5 6 5 5 6 6 5 4 4 3 2 2 3 3 3 3 1 2 2 2 1 1 4 3 6 17 19 18 18 16 15 13
9 10 9 9 8 8 7 8 9 8 6 5 5 5 6 6 8 6 3 4 4 3 3 4 4 3 4 3 3 2 1 1 2 2 3 5 7 6 7 13 14 13 12
12 11 11 11 9 7 13 17 14 9 9 8 6 4 4 6 6 6 6 7 5 5 6 5 6 6 3 3 3 4 4 2 2 1 2 4 3 6 4 4 14 13 12
13 12 12 10 10 10 14 17 17 9 10 9 8 6 4 3 4 3 4 5 5 3 4 3 3 4 3 4 4 5 4 3 3 2 5 3 3 6 3 7 13 12 10
14 13 12 11 8 5 11 13 14 8 7 8 8 7 6 5 4 4 4 4 2 1 3 2 3 4 4 3 5 6 6 5 4 3 1 3 1 2 3 2 13 12 11
13 14 13 11 11 9 15 15 12 8 6 7 6 5 6 5 8 11 6 5 3 1 5 6 4 7 9 9 8 7 5 8 3 2 1 3 2 3 2 3 3 12 11
15 13 15 12 14 8 12 14 12 7 8 5 5 5 11 7 9 6 5 5 3 2 2 2 4 5 9 9 8 4 8 7 4 2 2 3 3 3 2 1 2 4 4
Wind_Direction
199 179 163 124 47 56 64 37 44 29 31 38 49 77 71 73 71 76 349 20 64 49 34 19 11 1 348 336 329 326 325 319 319 313 299 299 296 292 279 274 276 271 262
232 175 127 109 98 93 82 51 1 13 16 358 26 42 30 63 82 94 220 319 357 78 47 19 6 357 348 338 332 329 325 328 317 313 304 295 294 293 295 280 273 243 227
173 144 151 155 147 87 76 36 18 24 24 356 10 7 359 356 2 10 53 63 41 69 23 15 3 356 353 348 342 338 340 340 332 326 316 306 291 285 288 288 267 220 193
151 147 144 156 166 133 101 68 28 18 22 20 339 330 343 351 351 26 73 114 95 48 3 0 343 340 340 344 345 338 332 327 327 327 314 306 293 289 284 285 259 246 233
148 145 158 167 149 125 85 75 51 93 49 314 298 313 320 315 300 340 43 118 129 86 36 7 354 331 328 325 338 340 336 324 315 316 320 309 287 285 279 282 286 254 225
149 144 148 160 154 139 136 146 153 148 179 246 301 307 288 278 280 273 259 65 104 67 63 42 5 341 345 347 347 342 340 332 320 315 316 315 304 294 279 276 263 238 206
165 161 168 168 166 168 187 185 160 167 302 354 12 329 341 345 247 236 214 106 96 34 11 357 352 339 317 356 349 348 342 331 322 316 320 317 310 294 284 273 266 252 244
179 173 177 190 183 160 172 172 154 149 261 207 135 97 345 334 7 21 75 156 171 320 320 316 312 316 329 25 353 359 350 339 330 321 313 310 304 299 288 275 264 262 263
190 188 192 188 192 179 189 190 179 171 189 261 214 145 75 235 308 324 278 227 221 258 277 300 293 308 8 38 19 342 345 337 330 341 336 321 315 303 292 278 270 259 260
203 197 195 195 198 191 191 195 184 172 144 194 301 219 195 144 182 322 316 280 280 259 259 265 258 273 228 148 3 342 340 333 328 337 353 1 20 16 8 329 272 259 101
214 206 198 197 202 200 206 196 178 182 179 162 175 156 176 208 203 164 269 301 310 247 253 242 239 248 237 203 276 331 340 330 328 330 349 6 9 40 55 43 44 93 92
221 220 207 202 203 202 198 201 197 188 188 187 181 181 178 175 195 182 223 261 250 296 282 239 231 239 208 205 261 355 351 336 327 322 334 14 31 71 74 74 78 74 81
224 229 209 208 201 203 205 194 192 199 192 187 192 210 214 210 163 180 180 233 235 279 291 258 233 229 210 190 272 354 345 335 324 312 342 40 56 69 74 83 92 96 100
222 211 208 211 212 207 203 195 194 199 196 199 201 208 197 219 179 184 181 173 261 270 271 247 263 216 217 259 298 11 342 329 314 287 49 90 83 77 76 79 81 85 88
216 206 202 208 207 208 207 198 205 205 191 196 209 208 214 211 211 203 197 179 169 228 280 283 253 146 69 307 306 339 324 322 317 260 128 108 94 94 89 83 83 84 88
224 213 215 215 213 208 204 200 205 204 200 203 199 199 203 207 215 215 202 193 185 179 225 224 242 254 188 230 275 7 343 339 333 191 129 122 115 105 100 89 82 81 79
227 223 217 212 210 208 206 204 210 202 207 203 197 198 211 184 208 217 207 200 194 170 200 270 235 210 215 216 185 102 344 339 326 310 152 144 128 116 108 103 95 85 80
244 229 223 215 212 212 204 205 213 212 210 207 202 188 197 177 219 221 210 210 202 194 174 210 215 218 223 244 220 168 178 41 336 309 196 198 141 126 117 116 109 105 98
260 240 226 218 218 214 208 208 211 213 220 220 220 202 181 182 205 224 220 223 216 200 200 195 212 209 205 165 153 130 240 118 335 306 309 213 139 129 127 120 113 109 104
282 251 232 225 222 218 212 208 204 211 198 197 201 193 181 184 197 194 198 207 207 210 215 232 225 219 196 204 232 187 175 91 355 355 8 140 122 127 121 114 109 103 103
293 276 254 239 224 210 200 194 185 176 173 181 200 180 185 183 190 193 182 211 216 228 227 231 249 239 206 165 202 151 133 152 66 39 57 53 95 91 102 105 107 108 102
306 288 266 244 220 206 190 184 180 184 181 176 175 183 161 184 190 203 224 224 209 230 238 239 249 236 234 205 156 170 142 153 123 352 63 66 82 95 90 112 119 113 103
303 292 277 253 235 222 205 203 196 186 172 164 166 168 171 181 194 184 240 250 255 272 297 266 237 219 226 193 178 148 170 135 147 130 115 79 69 105 128 118 119 111 102
309 288 278 257 239 227 199 197 176 162 159 155 159 165 174 184 203 200 220 220 232 309 324 315 294 278 237 210 208 183 167 109 81 64 94 108 108 82 72 77 124 118 105
309 306 277 256 235 225 190 182 160 153 144 146 128 166 175 193 214 222 181 178 174 42 28 31 308 283 270 256 170 130 147 143 122 145 41 107 146 96 55 37 98 123 108
300 301 294 264 227 200 197 178 152 140 145 141 162 175 202 198 209 226 166 158 157 178 138 29 12 17 28 29 177 187 156 158 128 115 181 107 133 129 110 28 37 50 67